[[{"header":{"parameterUnit":"m.s-1","parameterCategory":1,"la1":30.2991,"la2":30.254,"lo1":-89.0895,"lo2":-89.0444,"dy":0.0017,"dx":0.0017,"nx":28,"ny":28,"refTime":"2024-12-19T03:00:00:Z","depth":0,"parameterNumber":2,"parameterNumberName":"U-component_of_WINDS"},"data":[0,0,0,0,0,0,0,0,0,0,0,0,0,0,0,0,0,0,0,0,0,0,0,0,0,0,0,0,0,0,0,0,0,0,0,0,0,0,0,0,0,0,0,0,0,0,0,0,0,0,0,0,0,0,0,0,0,0,3.0671,3.0671,0,3.0732,3.0733,3.0733,3.0708,3.0707,3.0705,3.0704,3.0768,3.0771,3.0774,0,0,0,0,0,0,0,0,0,0,0,0,0,3.0536,3.0538,3.0671,3.0671,3.0672,3.0732,3.0733,3.0733,3.0708,3.0707,3.0705,3.0703,3.0767,3.0771,3.0775,0,0,0,0,0,0,0,0,0,0,0,0,0,3.0595,3.0539,3.0671,3.0667,3.0667,3.0732,3.0733,3.0734,3.0709,3.0707,3.0704,3.0702,3.0766,3.0771,3.0775,3.0847,0,0,3.0789,3.0791,0,0,0,0,0,0,0,0,3.0592,3.06,3.0667,3.0667,3.0668,3.071,3.0709,3.0772,3.0709,3.0693,3.0704,3.0701,3.0751,3.0757,3.0773,3.085,3.0853,3.079,3.0793,3.0794,3.0796,0,0,0,0,0,0,0,3.0588,3.0598,3.0695,3.0668,3.0668,3.0663,3.0669,3.0721,3.0734,3.0694,3.0693,3.07,3.0751,3.0769,3.0774,3.0854,3.079,3.0794,3.0797,3.0798,3.0997,3.0999,0,0,0,0,0,0,3.0583,3.0594,3.0693,3.0697,3.0624,3.0668,3.0674,3.0699,3.0733,3.0736,3.0702,3.0699,3.0762,3.0769,3.0776,3.0865,3.0794,3.0799,3.0801,3.0994,3.0997,3.1,0,0,0,0,0,0,3.0581,3.0592,3.0691,3.0645,3.0657,3.0672,3.07,3.0701,3.0719,3.0739,3.0741,3.0718,3.076,3.077,3.083,3.0867,3.0801,3.0805,3.0991,3.0995,3.0999,3.1042,0,0,0,0,0,0,3.0577,3.0592,3.0618,3.0646,3.066,3.0743,3.0702,3.0704,3.0727,3.0723,3.0754,3.0757,3.0759,3.0824,3.0835,3.0872,3.0809,3.0988,3.0993,3.0998,3.1037,3.1046,3.1054,0,0,0,0,0,3.0572,3.0628,3.062,3.0632,3.0693,3.0745,3.0753,3.0754,3.073,3.0757,3.0771,3.0756,3.0861,3.083,3.0843,3.0882,3.0986,3.0992,3.0997,3.1033,3.1044,3.1054,0,0,0,0,0,0,3.0604,3.0631,3.0622,3.0688,3.0714,3.074,3.0775,3.0765,3.0799,3.0794,3.0795,3.0802,3.0865,3.0879,3.0844,3.0955,3.092,3.0928,3.0943,3.0954,3.0962,3.0958,3.0812,0,0,0,0,0,3.0618,3.0657,3.0679,3.0735,3.0749,3.076,3.0782,3.0781,3.0808,3.0819,3.0836,3.0864,3.0904,3.0929,3.0967,3.1039,3.1046,3.1072,3.1081,3.1088,3.1095,3.1137,3.1149,3.1019,3.1019,3.1019,0,0,3.0649,3.0669,3.0693,3.0742,3.0762,3.0803,3.0769,3.0814,3.0845,3.0826,3.0884,3.0899,3.093,3.0997,3.1027,3.1011,3.1133,3.1095,3.11,3.1104,3.1144,3.1156,3.1167,3.1022,3.1022,3.1021,0,0,3.0726,3.0744,3.0794,3.0815,3.0846,3.0853,3.0865,3.0893,3.0902,3.096,3.0948,3.0986,3.1053,3.1076,3.1097,3.1186,3.1174,3.1198,3.1243,3.1284,3.1294,3.1303,3.1336,3.1348,3.1205,3.1205,3.1205,0,3.076,3.0821,3.0821,3.0867,3.089,3.0875,3.0927,3.0947,3.0989,3.1006,3.0986,3.1072,3.1092,3.1165,3.1187,3.1204,3.1219,3.1194,3.1292,3.1302,3.131,3.1342,3.1354,3.1208,3.1207,3.1207,3.1207,0,3.0863,3.0905,3.0942,3.0983,3.101,3.1058,3.1067,3.1095,3.1092,3.1102,3.1163,3.1187,3.1229,3.1247,3.1244,3.1321,3.131,3.1291,3.1257,3.1325,3.1355,3.1367,3.1212,3.1211,3.121,3.1209,0,0,3.096,3.1002,3.1015,3.1035,3.1069,3.1102,3.1151,3.1193,3.1217,3.1247,3.129,3.1348,3.1332,3.1356,3.1356,3.1391,3.1463,3.1369,3.137,3.1387,3.1551,3.1565,3.1579,3.1455,3.1457,3.1459,3.1549,0,3.1041,3.1126,3.1128,3.1207,3.1248,3.1235,3.1278,3.1305,3.1316,3.1353,3.1365,3.1408,3.1382,3.1397,3.1431,3.1446,3.1496,3.144,3.1496,3.1498,3.1489,3.1595,3.1609,3.1693,3.1561,3.1563,3.1564,0,3.1146,3.118,3.1262,3.1293,3.131,3.1348,3.1388,3.1423,3.1454,3.1459,3.1487,3.1483,3.1535,3.1498,3.1571,3.1533,3.1556,3.1568,3.1571,3.1577,3.1536,3.1605,3.1719,3.1732,3.1582,3.1581,3.1579,0,3.1211,3.1277,3.1335,3.1352,3.1388,3.1416,3.1433,3.1461,3.1487,3.1522,3.1539,3.158,3.1602,3.1635,3.1642,3.1615,3.1716,3.1679,3.1724,3.1724,3.1746,3.1744,3.1867,3.1759,3.1759,3.1759,3.1758,0,3.1301,3.1353,3.1365,3.1401,3.146,3.1463,3.152,3.1535,3.1561,3.1601,3.1593,3.1631,3.1638,3.1678,3.1684,3.1744,3.1754,3.1762,3.1763,3.1763,3.1762,3.1779,3.1774,3.1762,3.1761,3.1761,3.176,0,3.1384,3.1394,3.1457,3.1487,3.1496,3.1537,3.1563,3.1599,3.161,3.1661,3.1673,3.169,3.1737,3.1748,3.1803,3.1808,3.188,3.1875,3.187,3.187,3.1914,3.191,3.2052,3.2071,3.195,3.1951,3.1952,0,3.1441,3.148,3.1515,3.1541,3.1559,3.1601,3.1627,3.1632,3.1661,3.17,3.1731,3.1777,3.1814,3.189,3.1908,3.1952,3.1948,3.1995,3.1955,3.1955,3.1951,3.1949,3.1954,3.2003,3.2004,3.2006,3.2006,0,3.1543,3.1546,3.1584,3.1625,3.1657,3.1689,3.172,3.1742,3.1752,3.1784,3.1832,3.1861,3.1918,3.1965,3.2009,3.2027,3.202,3.2019,3.2032,3.2033,3.2029,3.2033,3.1892,3.2016,3.2015,3.2014,3.2014,3.2013,3.1615,3.165,3.1681,3.1724,3.1748,3.1778,3.1813,3.1829,3.1868,3.1915,3.1916,3.1969,3.2001,3.2059,3.2081,3.2123,3.2109,3.2127,3.2131,3.2136,3.2141,3.2021,3.2131,3.213,3.213,3.213,3.213,0,3.1718,3.1737,3.1777,3.182,3.1855,3.1844,3.1879,3.1909,3.1955,3.1985,3.2022,3.2079,3.2124,3.2147,3.2192,3.2222,3.222,3.2234,3.2232,3.2237,3.215,3.2135,3.2235,3.2235,3.2235,3.2235,3.2235,3.2235,3.1775,3.1835,3.1842,3.1915,3.1934,3.1985,3.2006,3.2034,3.2058,3.2121,3.2159,3.2174,3.2202,3.2249,3.2292,3.2297,3.2315,3.2332,3.2336,3.2254,3.2243,3.2233,3.2219,3.2335,3.2335,3.2419,3.242,3.2421]},{"header":{"parameterUnit":"m.s-1","parameterCategory":1,"la1":30.2991,"la2":30.254,"lo1":-89.0895,"lo2":-89.0444,"dy":0.0017,"dx":0.0017,"nx":28,"ny":28,"refTime":"2024-12-19T03:00:00:Z","depth":0,"parameterNumber":3,"parameterNumberName":"V-component_of_WINDS"},"data":[0,0,0,0,0,0,0,0,0,0,0,0,0,0,0,0,0,0,0,0,0,0,0,0,0,0,0,0,0,0,0,0,0,0,0,0,0,0,0,0,0,0,0,0,0,0,0,0,0,0,0,0,0,0,0,0,0,0,-3.6046,-3.6046,0,-3.6078,-3.6078,-3.6079,-3.6079,-3.6078,-3.6078,-3.6077,-3.6108,-3.6109,-3.611,0,0,0,0,0,0,0,0,0,0,0,0,0,-3.5984,-3.5985,-3.6046,-3.6046,-3.6047,-3.6078,-3.6078,-3.6079,-3.6079,-3.6078,-3.6078,-3.6077,-3.6108,-3.6109,-3.611,0,0,0,0,0,0,0,0,0,0,0,0,0,-3.6013,-3.5986,-3.6046,-3.605,-3.6051,-3.6078,-3.6078,-3.6079,-3.6079,-3.6078,-3.6078,-3.6077,-3.6107,-3.6109,-3.6111,-3.6134,0,0,-3.6116,-3.6117,0,0,0,0,0,0,0,0,-3.6011,-3.6015,-3.6049,-3.605,-3.6051,-3.6074,-3.6068,-3.6097,-3.6079,-3.6068,-3.6077,-3.6077,-3.6097,-3.6099,-3.6107,-3.6135,-3.6137,-3.6116,-3.6117,-3.6118,-3.6119,0,0,0,0,0,0,0,-3.6009,-3.6014,-3.6058,-3.605,-3.6051,-3.6051,-3.6054,-3.6073,-3.6086,-3.6069,-3.6069,-3.6073,-3.6097,-3.6105,-3.6108,-3.6137,-3.6116,-3.6118,-3.6119,-3.612,-3.619,-3.619,0,0,0,0,0,0,-3.6007,-3.6012,-3.6057,-3.6059,-3.6029,-3.6053,-3.6056,-3.6067,-3.6085,-3.6088,-3.6074,-3.6073,-3.6102,-3.6105,-3.6109,-3.6139,-3.6118,-3.612,-3.6121,-3.6189,-3.619,-3.6191,0,0,0,0,0,0,-3.6005,-3.6011,-3.6056,-3.6036,-3.6042,-3.6054,-3.6066,-3.6068,-3.6076,-3.6089,-3.6091,-3.608,-3.6102,-3.6106,-3.6129,-3.614,-3.6121,-3.6122,-3.6188,-3.6189,-3.619,-3.6199,0,0,0,0,0,0,-3.6004,-3.601,-3.6019,-3.6036,-3.6043,-3.6075,-3.6067,-3.6069,-3.6079,-3.6079,-3.6095,-3.6097,-3.6102,-3.6126,-3.613,-3.6142,-3.6124,-3.6187,-3.6188,-3.619,-3.6197,-3.62,-3.6202,0,0,0,0,0,-3.6001,-3.6019,-3.6019,-3.6025,-3.6054,-3.6076,-3.608,-3.6086,-3.608,-3.6089,-3.6098,-3.6096,-3.6138,-3.6128,-3.6133,-3.6146,-3.6186,-3.6188,-3.619,-3.6196,-3.6199,-3.6202,0,0,0,0,0,0,-3.6001,-3.6021,-3.6022,-3.6045,-3.6059,-3.6076,-3.6087,-3.6089,-3.6104,-3.6102,-3.6109,-3.6112,-3.6135,-3.6142,-3.6131,-3.6171,-3.6161,-3.6164,-3.6165,-3.6168,-3.617,-3.6168,-3.6125,0,0,0,0,0,-3.6004,-3.602,-3.6037,-3.6056,-3.6063,-3.6075,-3.6084,-3.6088,-3.6102,-3.6108,-3.6118,-3.6131,-3.6148,-3.6158,-3.6174,-3.6199,-3.6203,-3.621,-3.6212,-3.6214,-3.6217,-3.6233,-3.6236,-3.6196,-3.6196,-3.6196,0,0,-3.6009,-3.6022,-3.6032,-3.6057,-3.6068,-3.6085,-3.6079,-3.6097,-3.611,-3.611,-3.6133,-3.6141,-3.6156,-3.6181,-3.6192,-3.6188,-3.6229,-3.6217,-3.6218,-3.6219,-3.6235,-3.6239,-3.6242,-3.6198,-3.6197,-3.6197,0,0,-3.6028,-3.604,-3.6058,-3.607,-3.6088,-3.6096,-3.6101,-3.6118,-3.6124,-3.6147,-3.6149,-3.6164,-3.6192,-3.6203,-3.6213,-3.6241,-3.624,-3.6246,-3.6258,-3.6273,-3.6276,-3.6279,-3.629,-3.6294,-3.6248,-3.6248,-3.6248,0,-3.6032,-3.6059,-3.6067,-3.6086,-3.6098,-3.6101,-3.612,-3.6131,-3.6153,-3.616,-3.6156,-3.6193,-3.6203,-3.6231,-3.6239,-3.6246,-3.6252,-3.6243,-3.6276,-3.6278,-3.6281,-3.6292,-3.6296,-3.6249,-3.6248,-3.6248,-3.6248,0,-3.6064,-3.6083,-3.6096,-3.6119,-3.6132,-3.615,-3.6162,-3.6174,-3.6178,-3.6187,-3.6211,-3.6224,-3.6244,-3.6251,-3.6254,-3.6281,-3.6278,-3.6274,-3.6265,-3.6286,-3.6296,-3.63,-3.6249,-3.6249,-3.6249,-3.6249,0,0,-3.6081,-3.6111,-3.6116,-3.6128,-3.6149,-3.6164,-3.6184,-3.6205,-3.6216,-3.6231,-3.6248,-3.6274,-3.6272,-3.6283,-3.6287,-3.6301,-3.6324,-3.6296,-3.6296,-3.6301,-3.6356,-3.6359,-3.6363,-3.6324,-3.6325,-3.6325,-3.6355,0,-3.6103,-3.614,-3.6149,-3.618,-3.6199,-3.6204,-3.6221,-3.6237,-3.6246,-3.6263,-3.6273,-3.6291,-3.6287,-3.6294,-3.6307,-3.6318,-3.6335,-3.6316,-3.634,-3.6341,-3.6337,-3.6369,-3.6371,-3.6398,-3.6359,-3.636,-3.636,0,-3.6133,-3.6152,-3.6185,-3.6208,-3.6216,-3.6231,-3.6253,-3.6269,-3.6287,-3.6293,-3.6307,-3.6311,-3.6333,-3.6324,-3.6354,-3.6341,-3.6352,-3.6359,-3.6361,-3.6363,-3.6352,-3.6372,-3.6407,-3.6411,-3.6366,-3.6366,-3.6365,0,-3.6144,-3.6177,-3.6202,-3.6212,-3.6238,-3.6249,-3.6261,-3.6279,-3.6292,-3.631,-3.6319,-3.6339,-3.635,-3.6366,-3.6376,-3.6368,-3.6406,-3.6397,-3.6412,-3.6412,-3.642,-3.6419,-3.6457,-3.6426,-3.6426,-3.6426,-3.6426,0,-3.6167,-3.6188,-3.6208,-3.6223,-3.6247,-3.6258,-3.6282,-3.6293,-3.631,-3.6328,-3.6333,-3.6349,-3.6361,-3.638,-3.6388,-3.6413,-3.6417,-3.6423,-3.6425,-3.6423,-3.6422,-3.643,-3.6428,-3.6427,-3.6427,-3.6427,-3.6426,0,-3.6182,-3.6196,-3.6224,-3.6248,-3.6255,-3.6272,-3.6292,-3.6307,-3.6318,-3.6341,-3.6347,-3.6364,-3.6386,-3.6398,-3.6425,-3.6431,-3.646,-3.646,-3.6454,-3.6455,-3.647,-3.6468,-3.6514,-3.6521,-3.6485,-3.6485,-3.6486,0,-3.6196,-3.6213,-3.6239,-3.6253,-3.6265,-3.6286,-3.63,-3.6313,-3.6327,-3.6351,-3.6364,-3.6388,-3.6407,-3.6443,-3.6457,-3.6479,-3.648,-3.6495,-3.6483,-3.6481,-3.6481,-3.648,-3.6483,-3.6496,-3.6497,-3.6497,-3.6497,0,-3.622,-3.6228,-3.6248,-3.6272,-3.629,-3.6309,-3.6327,-3.6338,-3.6354,-3.637,-3.6394,-3.6409,-3.6439,-3.6463,-3.6486,-3.6498,-3.65,-3.6501,-3.6506,-3.6504,-3.65,-3.6503,-3.646,-3.6499,-3.6499,-3.6499,-3.6499,-3.6499,-3.6236,-3.6252,-3.6274,-3.6298,-3.6314,-3.6332,-3.6349,-3.6363,-3.6384,-3.641,-3.6417,-3.6443,-3.6463,-3.6495,-3.6508,-3.6528,-3.6525,-3.6532,-3.6534,-3.6535,-3.6537,-3.6497,-3.6532,-3.6532,-3.6532,-3.6532,-3.6532,0,-3.6261,-3.6276,-3.6298,-3.6326,-3.6345,-3.6348,-3.637,-3.6386,-3.6409,-3.6429,-3.6449,-3.6478,-3.6501,-3.6519,-3.6543,-3.6556,-3.6558,-3.6562,-3.6561,-3.6564,-3.6537,-3.6531,-3.656,-3.656,-3.656,-3.656,-3.656,-3.656,-3.6276,-3.6304,-3.6314,-3.6351,-3.6366,-3.6393,-3.6406,-3.6423,-3.6439,-3.6472,-3.6492,-3.6504,-3.6524,-3.655,-3.6572,-3.6577,-3.6586,-3.659,-3.6594,-3.6569,-3.6566,-3.6563,-3.6557,-3.6591,-3.6591,-3.662,-3.662,-3.662]}]]